STARLINK-36756

Last updated on Sun Mar 15 2026 00:02:07 GMT+0000 (Coordinated Universal Time)

1 67817U 26032W 26073.48598153 .00150920 00000+0 99388-3 0 9999 2 67817 97.2835 260.2862 0001732 90.4406 269.7058 15.75214043 5539
UTC large
Height (km)
Speed (km/s)
/
Latitude / Longitude
Inclination (degrees)
Orbital Period (minutes)
Azimuth
Elevation
Range (km)
Doppler Factor

Next 0 passes for location: London (51.5072 / 0.1276)

Sorry there are no passes over London.